View from above orbital plane
|
View from above satellite
|
Ground track
|
The orbit data is extracted from the following two-line orbital elements,
1 37852U 11061C 21023.56918320 .00001349 00000-0 73027-4 0 9996
2 37852 101.7283 237.2606 0159652 133.2898 228.1760 15.08082782504531
Epoch (UTC): | 23 January 2021 13:39:37 |
Eccentricity: | 0.0159652 |
inclination: | 101.7283° |
perigee height: | 431 km |
apogee height: | 652 km |
right ascension of ascending node: | 237.2606° |
argument of perigee: | 133.2898° |
revolutions per day: | 15.08082782 |
mean anomaly at epoch: | 228.1760° |
orbit number at epoch: | 50453 |
The dashed part of the orbit path shows where the satellite is in the earth's shadow,
|
|